ES'HAIL 1 (39233 NORAD) Tracking and Keplerian Element Data

This shows tracking and keplerian element data for the satellite.

Feedback or suggestion? Click here.




ElementValue
Catalog39233
NameES'HAIL 1
Epoch Orbit3354
Epoch Day324.84243946
Epoch Year2022
RAAN351.6619
Inclination0.0514
Eccentricity0.0001804
Argument of Perigee247.4468
Mean Anonmoly149.5133
Mean Motion1.00274247
Decay Rate1.66E-06
L11 39233U 13044A 22324.84243946 .00000166 00000+0 00000+0 0 9996
L22 39233 0.0514 351.6619 0001804 247.4468 149.5133 1.00274247 33549



Live tracking and technical data element details for ES'HAIL 1 (NORAD 39233). ES'HAIL 1 can be tracked NOW for your location showing map with azimuth and elevation plus other details from your city location.







IsCatalogInMostPopularTable: catalog: 39233, numindb: 1546
Update: records affected: 1



GetName: 39233 ES'HAIL 1

Hit Count: updated at: Sun, 04 Dec 2022 21:00:43 GMT